SCP
1 0 0 0 0 0 0 0 0 1 1 1 1 0 0 0 1 1 1 1 1 1 0 0 0 0 0 0 0 1 1 0 0 0 1 0 0 0 0 0 0 0 0
1 0 0 0 0 0 0 0 0 1 1 1 1 0 0 1 1 1 1 0 1 1 0 0 0 0 0 0 1 1 1 1 1 1 1 1 1 1 0 0 0 0 0
1 1 0 0 0 0 0 0 0 0 1 1 1 1 1 1 1 1 1 0 1 1 1 1 0 0 1 1 1 1 1 1 1 1 1 1 1 1 1 1 0 0 0
1 1 1 0 0 0 0 0 0 0 0 1 1 1 1 1 1 1 1 1 1 1 1 1 1 1 1 1 1 1 1 1 1 1 1 1 1 0 0 0 0 0 0
2 1 1 1 0 0 0 0 0 1 1 1 1 1 1 1 1 1 1 1 1 1 1 1 1 1 1 1 1 1 1 1 1 1 1 1 1 1 0 0 0 0 0
2 1 1 1 1 1 1 1 1 1 1 1 1 1 1 1 1 1 1 1 0 0 0 1 1 1 1 1 1 1 1 1 1 1 1 1 1 1 1 0 0 0 0
2 2 1 1 1 1 1 1 1 1 1 1 1 1 1 1 1 1 1 1 1 0 0 1 1 1 1 1 1 1 1 1 1 1 1 1 1 1 1 1 1 0 0
2 2 2 2 2 1 1 1 1 1 1 1 1 1 1 1 1 1 1 1 1 1 1 1 1 1 1 1 1 1 1 1 1 1 1 1 1 1 1 1 1 1 1
2 2 3 3 2 2 1 1 1 1 1 1 2 2 2 2 2 2 2 2 2 1 1 1 1 1 1 1 1 1 1 1 1 1 1 1 1 1 1 1 1 1 1
2 2 3 3 3 3 2 1 1 2 2 2 2 2 3 3 3 3 2 2 2 2 1 1 1 1 1 1 1 1 1 1 1 1 1 1 1 1 1 1 1 1 1
2 3 3 3 3 3 2 2 2 2 2 2 2 3 4 5 5 4 3 2 2 2 1 1 1 1 1 1 1 1 1 1 1 1 1 1 1 1 1 1 1 1 1
2 3 3 3 3 2 2 2 2 2 2 2 3 3 4 5 5 5 4 3 2 2 2 1 1 1 1 1 1 1 1 1 1 0 1 1 1 1 1 1 1 1 1
2 2 3 3 2 2 2 2 2 3 3 3 3 3 4 5 5 4 4 3 2 2 2 1 1 1 1 2 1 1 1 1 0 0 0 0 1 1 1 1 1 1 1
2 2 2 2 2 2 2 3 3 3 3 3 3 4 4 5 4 4 3 3 3 2 2 2 2 3 3 2 2 1 1 1 0 0 0 0 0 1 0 0 1 1 1
2 2 2 2 2 2 3 3 3 4 4 4 4 4 5 5 4 3 3 3 3 2 1 2 3 4 3 2 2 1 1 1 0 0 0 0 0 0 0 0 0 0 1
2 2 2 2 2 3 3 3 4 4 4 4 4 4 5 5 4 4 4 4 3 3 2 3 4 3 3 2 2 2 1 1 1 0 0 0 0 0 0 0 0 0 0
2 2 2 3 3 3 4 4 4 3 3 3 4 4 4 4 4 4 4 4 4 4 4 4 3 2 2 2 2 2 1 1 1 0 0 0 0 0 0 0 0 0 0
2 2 3 4 4 4 4 4 3 3 3 3 4 4 4 4 4 4 4 4 4 4 5 4 2 2 1 1 1 1 1 1 1 0 0 0 0 0 0 0 0 0 0
3 4 5 6 5 5 4 4 4 3 3 3 3 3 3 2 2 3 3 3 4 4 4 3 2 1 1 1 1 1 1 1 1 0 0 0 0 0 0 0 0 0 0
6 7 8 8 7 5 5 4 4 4 4 4 3 3 2 2 2 2 2 2 3 3 3 2 1 1 1 1 1 1 1 1 1 1 0 0 0 0 0 0 0 0 0
7 8 8 8 7 6 5 5 5 5 5 4 3 3 2 2 2 2 1 2 2 2 2 2 1 1 1 1 1 1 1 1 1 1 1 1 1 1 1 0 0 0 0
6 7 7 7 7 6 5 4 5 6 6 5 4 3 3 3 2 2 1 1 1 1 1 1 1 1 1 1 1 1 1 1 1 1 1 1 1 1 1 1 0 0 0
5 5 5 6 6 6 5 4 4 6 6 5 4 4 4 4 3 3 2 2 1 1 1 1 1 1 1 1 1 1 1 1 1 1 1 1 1 1 1 1 0 0 0
4 4 4 4 5 5 5 3 3 6 7 5 4 4 4 4 4 4 3 3 3 2 1 1 1 1 1 1 1 1 1 1 1 1 1 0 0 1 1 0 0 0 0
4 4 3 3 4 5 4 3 3 5 6 5 4 3 4 4 4 3 4 4 4 3 2 1 0 0 0 0 1 1 1 1 1 1 1 0 0 0 0 0 0 0 0
5 4 3 3 3 4 4 4 3 4 5 4 3 3 3 4 4 3 4 4 4 3 2 1 0 0 0 0 0 0 1 1 1 0 0 1 1 0 0 0 0 0 0
Wind_Speed
3 3 2 1 1 2 2 1 1 2 1 1 1 1 1 1 2 2 5 9 8 8 8 9 9 9 9 9 9 9 9 9 9 9 8 9 9 9 9 8 8 8 8
2 2 2 1 1 1 1 1 1 1 1 0 0 1 1 1 2 2 3 7 9 9 9 9 9 9 10 10 10 10 10 10 10 9 9 9 9 9 9 10 9 9 9
2 2 1 1 1 1 1 1 0 0 1 2 2 2 2 2 2 2 3 3 6 10 10 10 10 10 10 11 11 11 11 11 11 11 11 10 10 10 10 10 10 10 9
2 2 1 1 1 2 1 1 2 1 0 1 1 2 2 2 3 4 4 4 3 4 9 11 10 10 10 11 11 11 11 11 11 12 12 12 12 11 11 11 11 11 11
3 3 1 1 2 2 1 2 0 1 1 2 3 3 3 3 3 4 3 4 4 4 4 9 12 11 11 11 12 13 13 13 12 12 13 13 13 13 12 12 12 12 12
3 3 2 2 3 2 2 1 1 2 3 3 4 2 3 3 3 3 4 4 4 5 5 4 7 10 13 12 12 13 14 13 13 13 14 15 15 14 14 14 14 14 14
3 3 3 2 3 2 2 3 3 3 3 2 3 3 3 4 4 3 4 3 4 5 4 5 5 4 6 13 13 13 14 14 14 14 14 15 16 16 15 15 15 15 15
4 4 4 3 3 2 3 3 3 3 2 2 3 3 2 2 3 3 4 4 4 4 5 6 5 5 6 4 8 13 13 14 14 14 14 14 15 15 16 16 16 16 16
4 4 4 4 3 4 3 4 4 4 3 3 2 3 3 2 1 2 2 2 2 3 4 4 6 6 7 5 5 10 12 12 12 13 13 13 13 13 14 15 15 14 14
4 4 4 4 4 4 3 5 3 3 4 4 2 3 4 4 3 2 3 2 3 4 4 4 4 4 5 4 3 3 8 10 11 12 13 12 12 12 12 13 14 14 14
4 4 4 4 4 4 4 4 3 4 4 4 3 3 3 3 5 4 3 3 2 2 2 2 2 2 2 3 3 3 5 7 8 9 10 11 11 12 12 12 13 13 14
3 4 4 4 4 4 4 4 4 5 4 4 4 3 3 3 3 3 4 4 3 2 1 2 2 2 2 2 2 3 2 4 6 7 8 9 9 10 10 11 12 12 12
3 3 3 3 4 4 4 4 4 5 4 5 5 4 4 3 3 3 5 4 4 2 1 2 1 2 2 2 2 2 2 1 3 4 6 6 7 7 7 8 9 9 9
2 2 3 3 4 4 4 4 4 4 3 4 4 4 3 3 3 3 4 4 4 3 1 1 1 2 2 2 3 2 2 2 0 2 3 3 4 4 4 4 5 5 6
2 2 2 3 3 3 3 4 3 3 3 3 3 3 3 2 3 3 3 3 4 4 3 1 1 3 3 2 3 2 2 5 4 2 2 1 1 1 1 1 3 3 3
2 2 2 2 2 2 3 3 2 2 3 2 2 2 3 2 2 2 2 3 3 4 3 2 2 3 4 3 4 3 3 6 6 6 6 6 5 5 4 3 1 1 2
2 3 2 2 2 2 2 1 1 1 1 1 2 2 2 2 2 2 2 2 2 2 2 2 2 3 4 4 4 3 3 3 4 8 7 7 7 7 6 5 5 4 3
2 2 1 1 1 1 0 0 0 0 1 1 2 2 2 1 1 2 2 2 2 2 2 2 2 2 3 3 3 3 2 3 4 9 9 9 8 8 8 8 7 6 5
1 1 1 1 1 1 1 1 2 2 3 3 4 4 4 4 3 3 3 2 2 1 1 1 2 2 2 3 2 2 3 2 2 5 7 8 7 8 8 7 7 6 6
2 2 2 3 3 3 3 3 4 4 4 5 5 5 5 5 5 4 3 3 2 2 2 2 2 2 2 3 2 2 2 2 2 3 3 4 6 7 7 7 6 6 5
3 4 4 4 5 4 4 4 4 5 5 5 5 6 7 9 10 7 5 5 4 3 3 3 3 3 3 4 4 3 2 1 2 3 2 2 2 2 3 5 5 5 5
5 5 5 6 6 6 7 7 4 5 5 5 5 5 6 7 9 10 10 10 8 5 4 3 3 4 5 5 4 4 3 3 2 3 3 2 2 2 3 4 5 4 4
6 6 6 7 7 7 8 7 6 5 6 5 6 5 5 6 6 6 8 9 10 10 8 5 5 5 5 5 5 4 4 4 4 4 3 2 2 1 1 4 5 4 3
6 7 6 6 7 8 7 6 5 6 7 6 6 6 6 6 7 6 7 8 8 8 7 6 5 5 6 6 5 3 3 0 1 2 3 3 2 2 2 2 5 3 2
7 6 6 6 7 7 7 5 3 5 6 7 7 8 7 7 9 6 6 6 6 6 8 8 6 5 5 6 7 4 4 3 2 3 4 4 3 3 2 1 3 5 3
6 7 7 7 7 7 7 6 3 4 6 6 6 7 11 9 9 7 5 5 5 5 4 4 4 2 3 5 5 6 6 4 4 3 5 5 4 4 2 1 2 1 1
Wind_Direction
103 99 93 89 109 110 140 117 95 103 138 142 123 131 118 103 116 149 135 161 179 189 194 192 191 193 194 195 196 198 198 196 195 195 195 194 193 193 194 195 195 194 193
100 110 130 123 95 110 62 69 107 139 208 124 193 165 229 177 153 180 165 165 183 194 202 202 202 203 203 203 205 206 208 207 204 202 203 204 206 206 206 205 205 203 202
147 165 145 178 130 136 143 183 89 245 221 199 202 210 213 209 176 189 208 193 179 191 203 209 209 212 213 213 213 214 216 216 212 209 210 211 213 214 215 215 214 211 211
191 218 187 186 156 205 200 200 233 245 280 268 232 231 215 204 210 203 208 205 204 194 192 203 212 217 221 222 221 220 221 222 219 216 216 216 218 220 220 221 220 219 217
202 225 225 170 217 228 234 260 120 285 275 275 253 217 231 223 220 220 221 217 211 224 212 184 202 216 224 225 225 226 224 222 223 223 223 222 224 225 224 224 224 222 220
214 234 222 208 232 231 234 259 276 266 275 273 281 274 244 232 230 225 232 223 215 222 228 216 203 208 215 223 226 227 228 226 224 226 227 229 229 228 228 227 226 225 224
222 232 249 211 237 234 252 254 253 240 253 273 270 262 247 221 215 219 225 239 221 220 229 230 237 235 206 209 219 226 230 229 225 226 227 229 231 230 229 230 229 228 227
232 225 229 235 227 237 242 247 250 272 269 253 279 284 267 214 200 211 206 212 233 227 230 228 234 238 254 220 198 210 223 229 228 228 229 229 231 231 231 231 231 229 229
235 248 235 244 244 242 234 244 249 254 270 264 261 282 288 300 293 194 217 225 238 249 251 248 237 235 240 243 222 200 210 220 227 229 230 230 229 230 232 231 230 228 227
237 238 240 239 245 248 241 248 236 255 262 265 248 256 277 308 291 268 219 204 226 241 256 265 262 242 240 244 238 233 202 212 221 228 232 232 230 228 230 233 233 232 229
232 238 241 241 243 251 253 262 262 256 254 261 263 255 251 246 251 271 280 281 266 255 252 251 273 275 260 257 252 238 196 210 218 229 235 237 236 234 233 237 240 239 237
226 226 236 238 241 251 253 253 253 243 252 262 264 259 257 262 263 268 275 282 284 290 299 305 295 282 277 274 286 51 153 212 221 234 242 245 243 240 238 240 243 244 244
230 222 239 237 242 238 246 253 247 259 250 250 252 255 258 261 274 271 271 279 282 272 264 274 301 328 325 328 10 52 111 179 227 237 244 247 247 244 241 240 243 246 243
261 254 243 245 249 246 245 241 250 243 240 245 254 258 256 258 262 262 269 282 284 274 259 290 330 352 340 352 23 335 35 82 231 252 252 248 240 236 240 240 241 244 242
241 242 253 254 262 252 251 248 249 247 235 239 248 244 253 259 255 258 263 267 275 288 290 314 346 5 347 15 14 359 20 60 73 67 76 104 121 130 173 226 230 232 234
244 249 257 255 252 251 247 245 238 240 229 230 248 269 271 276 280 270 269 271 270 280 295 353 9 4 1 3 45 33 48 72 71 78 77 77 76 73 66 53 26 288 249
222 232 233 233 227 240 250 238 238 241 241 262 274 259 265 295 302 299 292 284 278 274 276 316 358 16 12 9 15 16 37 56 73 79 79 75 72 68 61 55 50 47 41
212 223 218 207 196 193 223 217 66 30 8 354 343 347 342 345 335 324 317 301 301 287 286 316 355 15 19 19 19 14 32 59 78 85 87 81 76 72 64 56 50 44 41
165 160 152 130 130 110 95 78 67 53 49 43 36 30 19 16 7 3 346 344 340 359 359 7 24 19 18 13 12 33 48 42 70 109 111 102 91 84 74 63 54 45 41
126 111 94 91 86 84 85 83 80 74 67 58 51 45 35 26 16 7 11 9 8 18 40 46 45 35 24 5 355 8 38 49 35 31 61 99 115 111 93 75 57 45 38
95 92 93 87 80 77 66 76 89 83 77 69 61 57 55 50 43 28 20 18 19 25 42 46 39 30 20 8 357 354 17 40 63 17 12 55 99 85 100 92 67 44 35
85 87 84 79 74 67 55 49 64 83 75 71 65 59 64 62 63 60 56 48 38 39 41 43 46 39 23 8 357 356 3 357 17 19 338 25 35 40 52 57 54 54 42
93 84 80 80 79 66 57 60 58 79 75 64 61 54 53 58 60 69 78 75 63 51 39 35 48 28 19 4 349 357 9 6 7 10 339 353 19 23 51 83 88 66 42
92 87 83 85 85 70 56 61 69 88 79 70 62 59 60 55 47 51 69 70 65 54 46 49 48 32 23 3 345 349 348 6 100 56 353 344 357 355 8 84 122 108 63
92 90 84 82 82 74 52 43 48 96 88 78 67 56 55 61 39 35 73 75 72 77 81 76 63 59 46 20 354 350 353 349 18 44 18 341 342 334 331 13 124 159 164
96 93 86 79 78 72 53 35 7 94 93 91 83 73 58 51 38 28 63 68 63 51 51 72 77 74 52 50 28 10 356 351 354 16 20 336 340 334 322 350 352 352 195